Location: Marcé
(47.5801°N, 0.3280°W)
Time: 16:09:57
(UTC+01:00)

SR - Pass Details

Date: 09 December 2021
Orbit: 582 x 872 km, 66.7° (Epoch: 22 January)

Event Time Altitude Azimuth Distance (km) Brightness Sun altitude
Rises 08:27:39 0° 318° (NW) 2,833 - -2.2°
Exits shadow 08:28:07 - 317° (NW) 2,652 ? -2.2°
Reaches altitude 10° 08:29:59 10° 310° (NW) 1,947 ? -1.9°
Maximum altitude 08:33:56 35° 244° (WSW) 1,011 ? -1.3°
Drops below altitude 10° 08:38:06 10° 179° (S) 2,047 ? -0.8°
Sets 08:40:36 0° 171° (S) 3,001 ? -0.4°
